FENGYUN 1C DEB

Satellite information

Favourite Embed

Satellite Type and Status

DEBRISIN ORBIT

Key statistics

Satellite FENGYUN 1C DEB at a glance.

Uptime

9495

Days in orbit

Revolutions

≈ 14.3

Per day

Orbit

SSO

Sun Synchronous Orbit

Inclination

99.1

Latest

Satellite identification and parameters

Extended collection of information and parameters for FENGYUN 1C DEB.

Object identification

Identified? True

Debris? True

Object name: FENGYUN 1C DEB

International designator: 1999-025DHW

Object number (NORAD): 33733

Object ID (CCSDS): 33733

Country: PEOPLES REPUBLIC OF CHINA (PRC)

Current information (Y/N): Y

RCS size: SMALL

Orbital parameters

Period: 100.902 minutes

Inclination: 99.1027 deg

SMA: 7179.485 km

Apoapsis: 862.369 km

Periapsis: 740.331 km

RAAN: 200.9368 deg

Eccentricy: 0.0084991

Argument of periapsis: 91.5452 deg

Mean anomaly: 331.5376 deg

Mean motion: 14.27127653 rev/day

Mean motion (dot): 0.00009718 rev/day2

B* drag term: 0.0038481 1/REarth

Two-line elements (TLE)

Creation date: May 6, 2025, 3:54 a.m.

Reference frame: TEME

Reference center: EARTH

Epoch: May 5, 2025, 3:58 a.m. UTC

TLE line 0: 0 FENGYUN 1C DEB

TLE line 1: 1 33733U 99025DHW 25125.16565362 .00009718 00000-0 38481-2 0 9994

TLE line 2: 2 33733 99.1027 200.9368 0084991 91.5452 331.5376 14.27127653872849

Live tracking on map

Real-time ground track for satellite FENGYUN 1C DEB.

In-orbit conjunctions

A list of the most updated potential collisions computed for object FENGYUN 1C DEB.

Target Orbit TCA Probability of collision Miss distance Type
COSMOS 1275 DEB LEO 2024-11-15 01:33:41 0.000167367 209.0 (m) DEBRIS
FENGYUN 1C DEB SSO 2024-09-24 23:16:43 0.0001257936 794.0 (m) DEBRIS
SURCAL 159 LEO 2024-07-10 08:55:15 0.0001222772 523.0 (m) PAYLOAD

Associated space launch

Chinese polar orbiting meteorological satellite

FENGYUN 1C DEB was lifted into orbit during the mission ‘Long March 4B | Feng Yun 1C’, on board a Long March 4B space rocket.

The launch took place on May 10, 1999, 1:33 a.m. from Launch Complex 7.

For more information about the launch, click the button.

Launch to space Long March 4B | Feng Yun 1C
Long March 4B | Feng Yun 1C

Agency: N/A

Status: Launch Successful

Launch date: May 10, 1999, 1:33 a.m. UTC

Rocket: Long March 4B

Launch pad: Launch Complex 7

Location: Taiyuan Satellite Launch Center, People's Republic of China

...

Latest news about this satellite

There are no fresh news available about this satellite. Check back as we update our databases every day.


Newsletter sign-up

Weekly statistics, charts and insights to help you stay on top of the space industry.